Time,TemperatureF,DewpointF,PressureIn,WindDirection,WindDirectionDegrees,WindSpeedMPH,WindSpeedGustMPH,Humidity,HourlyPrecipIn,Conditions,Clouds,dailyrainin,SolarRadiationWatts/m^2,SoftwareType,DateUTC
2013-08-26 00:01:00,74.0,72.0,-100.00,South,188,2.0,7.0,95,0.02,,,0.19,1.000000,,2013-08-26 07:01:00,
2013-08-26 00:42:00,74.0,73.0,-100.00,South,172,1.0,4.0,96,0.00,,,0.19,1.000000,,2013-08-26 07:42:00,
2013-08-26 00:52:00,74.0,73.0,-100.00,South,172,1.0,4.0,96,0.00,,,0.19,1.000000,,2013-08-26 07:52:00,
2013-08-26 01:02:00,74.0,73.0,-100.00,South,172,1.0,4.0,96,0.00,,,0.19,1.000000,,2013-08-26 08:02:00,
2013-08-26 01:42:00,74.0,73.0,-100.00,East,86,1.0,3.0,98,0.00,,,0.19,1.000000,,2013-08-26 08:42:00,
2013-08-26 01:52:00,74.0,73.0,-100.00,East,86,1.0,3.0,98,0.00,,,0.19,1.000000,,2013-08-26 08:52:00,
2013-08-26 02:02:00,74.0,73.0,-100.00,East,86,1.0,3.0,98,0.00,,,0.19,1.000000,,2013-08-26 09:02:00,
2013-08-26 02:43:00,73.0,73.0,-100.00,NW,314,0.0,3.0,99,0.00,,,0.19,1.000000,,2013-08-26 09:43:00,
2013-08-26 02:53:00,73.0,73.0,-100.00,NW,314,0.0,3.0,99,0.00,,,0.19,1.000000,,2013-08-26 09:53:00,
2013-08-26 03:03:00,73.0,73.0,-100.00,NW,314,0.0,3.0,99,0.00,,,0.19,1.000000,,2013-08-26 10:03:00,
2013-08-26 03:42:00,73.0,73.0,-100.00,NNE,22,3.0,5.0,100,0.00,,,0.19,1.000000,,2013-08-26 10:42:00,
2013-08-26 03:52:00,73.0,73.0,-100.00,NNE,22,3.0,5.0,100,0.00,,,0.19,1.000000,,2013-08-26 10:52:00,
2013-08-26 04:02:00,73.0,73.0,-100.00,NNE,22,3.0,5.0,100,0.00,,,0.19,1.000000,,2013-08-26 11:02:00,
2013-08-26 04:42:00,74.0,72.0,-100.00,ENE,57,2.0,5.0,95,0.00,,,0.19,1.000000,,2013-08-26 11:42:00,
2013-08-26 04:52:00,74.0,72.0,-100.00,ENE,57,2.0,5.0,95,0.00,,,0.19,1.000000,,2013-08-26 11:52:00,
2013-08-26 05:01:00,74.0,72.0,-100.00,ENE,57,2.0,5.0,95,0.00,,,0.19,1.000000,,2013-08-26 12:01:00,
2013-08-26 05:42:00,73.0,72.0,-100.00,ENE,76,2.0,4.0,98,0.00,,,-99.99,1.000000,,2013-08-26 12:42:00,
2013-08-26 05:52:00,73.0,72.0,-100.00,ENE,76,2.0,4.0,98,0.00,,,-99.99,1.000000,,2013-08-26 12:52:00,
2013-08-26 06:02:00,73.0,72.0,-100.00,ENE,76,2.0,4.0,98,0.00,,,-99.99,1.000000,,2013-08-26 13:02:00,
2013-08-26 06:42:00,72.0,72.0,-100.00,SSE,163,2.0,4.0,100,0.00,,,0.19,2.000000,,2013-08-26 13:42:00,
2013-08-26 06:52:00,72.0,72.0,-100.00,SSE,163,2.0,4.0,100,0.00,,,0.19,2.000000,,2013-08-26 13:52:00,
2013-08-26 07:02:00,72.0,72.0,-100.00,SSE,163,2.0,4.0,100,0.00,,,0.19,2.000000,,2013-08-26 14:02:00,
2013-08-26 07:42:00,74.0,74.0,-100.00,ENE,71,2.0,4.0,100,0.01,,,0.20,43.000000,,2013-08-26 14:42:00,
2013-08-26 07:52:00,74.0,74.0,-100.00,ENE,71,2.0,4.0,100,0.01,,,0.20,43.000000,,2013-08-26 14:52:00,
2013-08-26 08:01:00,74.0,74.0,-100.00,ENE,71,2.0,4.0,100,0.01,,,0.20,43.000000,,2013-08-26 15:01:00,
2013-08-26 08:08:00,78.0,74.0,-100.00,South,171,1.0,4.0,88,0.00,,,0.20,203.000000,,2013-08-26 15:08:00,
2013-08-26 08:59:00,78.0,74.0,-100.00,South,171,1.0,4.0,88,0.00,,,0.20,203.000000,,2013-08-26 15:59:00,
2013-08-26 09:48:00,81.0,74.0,-100.00,South,178,1.0,4.0,79,0.00,,,0.20,248.000000,,2013-08-26 16:48:00,
2013-08-26 09:59:00,81.0,74.0,-100.00,South,178,1.0,4.0,79,0.00,,,0.20,248.000000,,2013-08-26 16:59:00,
2013-08-26 10:06:00,81.0,74.0,-100.00,South,178,1.0,4.0,79,0.00,,,0.20,248.000000,,2013-08-26 17:06:00,
2013-08-26 10:43:00,85.0,71.0,-100.00,WSW,251,2.0,4.0,64,0.00,,,0.20,380.000000,,2013-08-26 17:43:00,
2013-08-26 10:53:00,85.0,71.0,-100.00,WSW,251,2.0,4.0,64,0.00,,,0.20,380.000000,,2013-08-26 17:53:00,
2013-08-26 11:01:00,85.0,71.0,-100.00,WSW,251,2.0,4.0,64,0.00,,,0.20,380.000000,,2013-08-26 18:01:00,
2013-08-26 11:42:00,90.0,69.0,-100.00,WSW,253,5.0,8.0,50,0.00,,,0.20,752.000000,,2013-08-26 18:42:00,
2013-08-26 11:52:00,90.0,69.0,-100.00,WSW,253,5.0,8.0,50,0.00,,,0.20,752.000000,,2013-08-26 18:52:00,
2013-08-26 12:01:00,90.0,69.0,-100.00,WSW,253,5.0,8.0,50,0.00,,,0.20,752.000000,,2013-08-26 19:01:00,
2013-08-26 12:42:00,95.0,70.0,-100.00,West,277,4.0,10.0,45,0.00,,,0.20,825.000000,,2013-08-26 19:42:00,
2013-08-26 12:52:00,95.0,70.0,-100.00,West,277,4.0,10.0,45,0.00,,,0.20,825.000000,,2013-08-26 19:52:00,
2013-08-26 13:02:00,95.0,70.0,-100.00,West,277,4.0,10.0,45,0.00,,,0.20,825.000000,,2013-08-26 20:02:00,
2013-08-26 13:43:00,100.0,64.0,-100.00,WSW,237,3.0,13.0,31,0.00,,,0.20,976.000000,,2013-08-26 20:43:00,
2013-08-26 13:52:00,100.0,64.0,-100.00,WSW,237,3.0,13.0,31,0.00,,,0.20,976.000000,,2013-08-26 20:52:00,
2013-08-26 14:01:00,100.0,64.0,-100.00,WSW,237,3.0,13.0,31,0.00,,,0.20,976.000000,,2013-08-26 21:01:00,
2013-08-26 14:44:00,101.0,61.0,-100.00,South,186,4.0,11.0,27,0.00,,,0.20,874.000000,,2013-08-26 21:44:00,
2013-08-26 14:55:00,101.0,61.0,-100.00,South,186,4.0,11.0,27,0.00,,,0.20,874.000000,,2013-08-26 21:55:00,
2013-08-26 15:07:00,101.0,61.0,-100.00,South,186,4.0,11.0,27,0.00,,,0.20,874.000000,,2013-08-26 22:07:00,
2013-08-26 15:42:00,97.0,55.0,-100.00,ENE,67,9.0,18.0,25,0.00,,,0.20,518.000000,,2013-08-26 22:42:00,
2013-08-26 15:53:00,97.0,55.0,-100.00,ENE,67,9.0,18.0,25,0.00,,,0.20,518.000000,,2013-08-26 22:53:00,
2013-08-26 16:02:00,97.0,55.0,-100.00,ENE,67,9.0,18.0,25,0.00,,,0.20,518.000000,,2013-08-26 23:02:00,
2013-08-26 17:42:00,73.0,64.0,-100.00,NNW,336,10.0,31.0,74,-99.99,,,0.51,35.000000,,2013-08-27 00:42:00,
2013-08-26 17:52:00,73.0,64.0,-100.00,NNW,336,10.0,31.0,74,-99.99,,,0.51,35.000000,,2013-08-27 00:52:00,
2013-08-26 18:01:00,73.0,64.0,-100.00,NNW,336,10.0,31.0,74,-99.99,,,0.51,35.000000,,2013-08-27 01:01:00,
2013-08-26 18:42:00,77.0,70.0,-100.00,WNW,290,3.0,10.0,79,0.00,,,0.51,29.000000,,2013-08-27 01:42:00,
2013-08-26 18:52:00,77.0,70.0,-100.00,WNW,290,3.0,10.0,79,0.00,,,0.51,29.000000,,2013-08-27 01:52:00,
2013-08-26 19:02:00,77.0,70.0,-100.00,WNW,290,3.0,10.0,79,0.00,,,0.51,29.000000,,2013-08-27 02:02:00,
2013-08-26 19:42:00,76.0,69.0,-100.00,SSE,147,9.0,14.0,79,0.00,,,0.43,8.000000,,2013-08-27 02:42:00,
2013-08-26 19:52:00,76.0,69.0,-100.00,SSE,147,9.0,14.0,79,0.00,,,0.43,8.000000,,2013-08-27 02:52:00,
2013-08-26 20:02:00,76.0,69.0,-100.00,SSE,147,9.0,14.0,79,0.00,,,0.43,8.000000,,2013-08-27 03:02:00,
2013-08-26 20:08:00,76.0,62.0,-100.00,SW,215,8.0,15.0,61,0.02,,,0.45,1.000000,,2013-08-27 03:08:00,
2013-08-26 20:44:00,76.0,62.0,-100.00,SW,215,8.0,15.0,61,0.02,,,0.45,1.000000,,2013-08-27 03:44:00,
2013-08-26 20:58:00,76.0,62.0,-100.00,SW,215,8.0,15.0,61,0.02,,,0.45,1.000000,,2013-08-27 03:58:00,
2013-08-26 21:47:00,74.0,66.0,-100.00,SSE,153,3.0,10.0,76,0.00,,,0.45,1.000000,,2013-08-27 04:47:00,
2013-08-26 21:54:00,74.0,66.0,-100.00,SSE,153,3.0,10.0,76,0.00,,,0.45,1.000000,,2013-08-27 04:54:00,
2013-08-26 22:05:00,74.0,66.0,-100.00,SSE,153,3.0,10.0,76,0.00,,,0.45,1.000000,,2013-08-27 05:05:00,
2013-08-26 22:43:00,74.0,67.0,-100.00,NE,49,2.0,5.0,79,0.00,,,0.44,1.000000,,2013-08-27 05:43:00,
2013-08-26 22:52:00,74.0,67.0,-100.00,NE,49,2.0,5.0,79,0.00,,,0.44,1.000000,,2013-08-27 05:52:00,
2013-08-26 23:02:00,74.0,67.0,-100.00,NE,49,2.0,5.0,79,0.00,,,0.44,1.000000,,2013-08-27 06:02:00,
2013-08-26 23:42:00,72.0,68.0,-100.00,NNE,12,3.0,5.0,87,0.00,,,0.42,1.000000,,2013-08-27 06:42:00,
2013-08-26 23:52:00,72.0,68.0,-100.00,NNE,12,3.0,5.0,87,0.00,,,0.42,1.000000,,2013-08-27 06:52:00,